When you browse on this site, cookies collect data to enhance your experience and personalize the content and advertising you see.
Visit our Privacy Policy to learn more. By continuing to use the site, you agree to this use of cookies and data.
  • In Portugal
  • List of Countries
  • For 7 days
  • Water Temperature
  • Satellite Maps
  • Weather Map
  • Weather Widgets
  • user-avatar
    Login

    Hourly Weather Cieszow

    Today, 21 March, Thursday

    Time Temperature Precipitation Wind Pressure Humidity
    00:00 +3°C° 0 mm 2 mps 740 mmHg 66%
    01:00 +3°C° 0 mm 2 mps 740 mmHg 65%
    02:00 +3°C° 0 mm 2 mps 740 mmHg 66%
    03:00 +3°C° 0 mm 2 mps 740 mmHg 66%
    04:00 +3°C° 0 mm 2 mps 740 mmHg 67%
    05:00 +3°C° 0 mm 2 mps 740 mmHg 68%
    06:00 +3°C° 0 mm 2 mps 741 mmHg 69%
    07:00 +4°C° 0 mm 2 mps 741 mmHg 69%
    08:00 +6°C° 0 mm 2 mps 741 mmHg 68%
    09:00 +8°C° 0 mm 2 mps 741 mmHg 67%
    10:00 +10°C° 0 mm 2 mps 741 mmHg 66%
    11:00 +10°C° 0 mm 2 mps 741 mmHg 64%
    12:00 +11°C° 0 mm 3 mps 741 mmHg 62%
    13:00 +12°C° 0 mm 3 mps 741 mmHg 60%
    14:00 +13°C° 0 mm 2 mps 741 mmHg 61%
    15:00 +14°C° 0 mm 2 mps 740 mmHg 61%
    16:00 +14°C° 0 mm 2 mps 740 mmHg 62%
    17:00 +12°C° 0 mm 2 mps 740 mmHg 68%
    18:00 +11°C° 0 mm 1 mps 740 mmHg 75%
    19:00 +9°C° 0 mm 1 mps 739 mmHg 81%
    20:00 +9°C° 0 mm 1 mps 740 mmHg 83%
    21:00 +8°C° 0 mm 1 mps 740 mmHg 85%
    22:00 +8°C° 0 mm 1 mps 740 mmHg 87%
    23:00 +8°C° 0 mm 1 mps 740 mmHg 88%

    Tomorrow, 22 March, Friday

    Time Temperature Precipitation Wind Pressure Humidity
    00:00 +8°C° 0 mm 1 mps 740 mmHg 88%
    01:00 +7°C° 0 mm 1 mps 740 mmHg 89%
    02:00 +7°C° 0 mm 1 mps 740 mmHg 89%
    03:00 +7°C° 0 mm 1 mps 740 mmHg 89%
    04:00 +7°C° 0 mm 1 mps 739 mmHg 89%
    05:00 +7°C° 0 mm 1 mps 740 mmHg 89%
    06:00 +7°C° 0 mm 1 mps 740 mmHg 88%
    07:00 +8°C° 0 mm 1 mps 740 mmHg 88%
    08:00 +10°C° 0 mm 1 mps 740 mmHg 82%
    09:00 +11°C° 0 mm 1 mps 740 mmHg 77%
    10:00 +13°C° 0 mm 1 mps 741 mmHg 71%
    11:00 +14°C° 0 mm 1 mps 741 mmHg 69%
    12:00 +14°C° 0 mm 2 mps 740 mmHg 67%
    13:00 +15°C° 0 mm 2 mps 740 mmHg 65%
    14:00 +15°C° 0 mm 2 mps 740 mmHg 66%
    15:00 +15°C° 0 mm 2 mps 739 mmHg 66%
    16:00 +15°C° 0 mm 2 mps 739 mmHg 67%
    17:00 +13°C° 0 mm 2 mps 739 mmHg 73%
    18:00 +12°C° 0 mm 1 mps 738 mmHg 80%
    19:00 +11°C° 0 mm 1 mps 738 mmHg 86%
    20:00 +10°C° 0 mm 1 mps 738 mmHg 88%
    21:00 +10°C° 0 mm 1 mps 738 mmHg 89%
    22:00 +8°C° 0 mm 2 mps 738 mmHg 91%
    23:00 +8°C° 0 mm 2 mps 738 mmHg 91%

    Day after tomorrow, 23 March, Saturday

    Time Temperature Precipitation Wind Pressure Humidity
    00:00 +8°C° 0 mm 2 mps 738 mmHg 92%
    01:00 +7°C° 0 mm 2 mps 737 mmHg 92%
    02:00 +7°C° 0 mm 2 mps 737 mmHg 91%
    03:00 +7°C° 0 mm 2 mps 737 mmHg 90%
    04:00 +7°C° 0 mm 2 mps 736 mmHg 90%
    05:00 +7°C° 0 mm 2 mps 736 mmHg 88%
    06:00 +8°C° 0 mm 2 mps 736 mmHg 87%
    07:00 +8°C° 0 mm 2 mps 736 mmHg 85%
    08:00 +10°C° 0 mm 2 mps 736 mmHg 76%
    09:00 +14°C° 0 mm 2 mps 736 mmHg 67%
    10:00 +16°C° 0 mm 2 mps 736 mmHg 58%
    11:00 +17°C° 0 mm 2 mps 736 mmHg 54%
    12:00 +18°C° 0 mm 2 mps 736 mmHg 50%
    13:00 +19°C° 0 mm 2 mps 736 mmHg 46%
    14:00 +19°C° 0 mm 2 mps 735 mmHg 47%
    15:00 +18°C° 0 mm 2 mps 735 mmHg 48%
    16:00 +18°C° 0 mm 2 mps 735 mmHg 48%
    17:00 +17°C° 0 mm 2 mps 735 mmHg 55%
    18:00 +15°C° 0 mm 2 mps 735 mmHg 62%
    19:00 +13°C° 0 mm 2 mps 735 mmHg 69%
    20:00 +13°C° 0 mm 2 mps 735 mmHg 75%
    21:00 +11°C° 0 mm 3 mps 735 mmHg 80%
    22:00 +10°C° 0 mm 3 mps 736 mmHg 86%
    23:00 +9°C° 0.1 mm 3 mps 736 mmHg 87%

    24 March, Sunday

    Time Temperature Precipitation Wind Pressure Humidity
    00:00 +8°C° 0.1 mm 4 mps 736 mmHg 87%
    01:00 +7°C° 0.1 mm 4 mps 736 mmHg 88%
    02:00 +6°C° 0 mm 4 mps 736 mmHg 85%
    03:00 +5°C° 0 mm 3 mps 736 mmHg 81%
    04:00 +4°C° 0 mm 3 mps 736 mmHg 77%
    05:00 +4°C° 0 mm 3 mps 736 mmHg 74%
    06:00 +5°C° 0 mm 2 mps 736 mmHg 71%
    07:00 +4°C° 0 mm 2 mps 736 mmHg 68%
    08:00 +5°C° 0 mm 2 mps 737 mmHg 63%
    09:00 +6°C° 0 mm 2 mps 737 mmHg 58%
    10:00 +6°C° 0 mm 2 mps 737 mmHg 53%
    11:00 +7°C° 0 mm 2 mps 736 mmHg 51%
    12:00 +8°C° 0 mm 2 mps 736 mmHg 49%
    13:00 +9°C° 0 mm 2 mps 736 mmHg 46%
    14:00 +9°C° 0 mm 3 mps 736 mmHg 46%
    15:00 +9°C° 0 mm 3 mps 735 mmHg 45%
    16:00 +9°C° 0 mm 3 mps 735 mmHg 45%
    17:00 +8°C° 0 mm 3 mps 735 mmHg 48%
    18:00 +6°C° 0 mm 2 mps 735 mmHg 51%
    19:00 +5°C° 0 mm 2 mps 735 mmHg 55%
    20:00 +5°C° 0 mm 2 mps 735 mmHg 58%
    21:00 +4°C° 0 mm 2 mps 735 mmHg 62%
    22:00 +4°C° 0 mm 1 mps 735 mmHg 65%
    23:00 +3°C° 0 mm 1 mps 735 mmHg 67%

    25 March, Monday

    Time Temperature Precipitation Wind Pressure Humidity
    00:00 +3°C° 0 mm 1 mps 735 mmHg 68%
    01:00 +3°C° 0 mm 1 mps 735 mmHg 70%
    02:00 +1°C° 0 mm 2 mps 735 mmHg 70%
    03:00 +1°C° 0 mm 2 mps 735 mmHg 71%
    04:00 +1°C° 0 mm 2 mps 735 mmHg 71%
    05:00 0°C° 0 mm 3 mps 735 mmHg 70%
    06:00 +1°C° 0 mm 3 mps 735 mmHg 69%
    07:00 0°C° 0 mm 4 mps 735 mmHg 69%
    08:00 +1°C° 0 mm 5 mps 735 mmHg 62%
    09:00 +3°C° 0 mm 6 mps 735 mmHg 56%
    10:00 +4°C° 0 mm 7 mps 734 mmHg 49%
    11:00 +4°C° 0 mm 7 mps 734 mmHg 53%
    12:00 +4°C° 0 mm 8 mps 734 mmHg 56%
    13:00 +4°C° 0 mm 8 mps 733 mmHg 59%
    14:00 +4°C° 0.1 mm 8 mps 733 mmHg 60%
    15:00 +4°C° 0.1 mm 8 mps 732 mmHg 61%
    16:00 +4°C° 0.1 mm 7 mps 732 mmHg 62%
    17:00 +4°C° 0.1 mm 7 mps 732 mmHg 66%
    18:00 +3°C° 0.1 mm 7 mps 732 mmHg 71%
    19:00 +3°C° 0.1 mm 6 mps 732 mmHg 76%
    20:00 +2°C° 0.1 mm 6 mps 732 mmHg 76%
    21:00 +1°C° 0.1 mm 6 mps 731 mmHg 76%
    22:00 +1°C° 0.1 mm 6 mps 731 mmHg 76%
    23:00 0°C° 0.2 mm 7 mps 731 mmHg 76%

    26 March, Tuesday

    Time Temperature Precipitation Wind Pressure Humidity
    00:00 0°C° 0.2 mm 7 mps 731 mmHg 77%
    01:00 0°C° 0.2 mm 7 mps 731 mmHg 77%
    02:00 -1°C° 0 mm 7 mps 731 mmHg 78%
    03:00 -2°C° 0 mm 6 mps 730 mmHg 79%
    04:00 -2°C° 0 mm 6 mps 730 mmHg 79%
    05:00 -2°C° 0 mm 6 mps 730 mmHg 78%
    06:00 -2°C° 0 mm 7 mps 730 mmHg 77%
    07:00 -2°C° 0 mm 8 mps 730 mmHg 76%
    08:00 -2°C° 0.1 mm 8 mps 731 mmHg 71%
    09:00 -1°C° 0.1 mm 8 mps 731 mmHg 66%
    10:00 0°C° 0.1 mm 9 mps 732 mmHg 61%
    11:00 +1°C° 0 mm 8 mps 732 mmHg 54%
    12:00 +1°C° 0 mm 8 mps 732 mmHg 48%
    13:00 +2°C° 0 mm 8 mps 732 mmHg 41%
    14:00 +2°C° 0 mm 8 mps 732 mmHg 42%
    15:00 +2°C° 0 mm 8 mps 733 mmHg 43%
    16:00 +2°C° 0 mm 8 mps 733 mmHg 43%
    17:00 +2°C° 0 mm 6 mps 733 mmHg 50%
    18:00 +1°C° 0 mm 5 mps 734 mmHg 56%
    19:00 0°C° 0 mm 4 mps 734 mmHg 63%
    20:00 -1°C° 0 mm 4 mps 735 mmHg 65%
    21:00 0°C° 0 mm 3 mps 735 mmHg 68%
    22:00 -1°C° 0 mm 3 mps 736 mmHg 70%
    23:00 -2°C° 0 mm 3 mps 736 mmHg 73%
    Show more